Dewpoint
3 6 13 14 13 12 12 10 9 8 9 6 2 3 8 10 10 11 11 11 10 9 6 4 8 11 12 11 12 11 10 10 10 9 1 -5 -6 -5 -2 11 10 10 5
2 5 14 13 13 12 12 10 10 9 10 5 2 11 10 9 10 10 10 9 7 4 2 -0 7 9 11 11 11 11 10 10 9 3 -0 -3 -3 -2 -0 5 11 9 8
0 3 13 13 14 12 11 10 10 9 9 3 10 11 7 7 8 7 6 6 5 3 1 -1 0 4 5 10 11 10 8 4 -1 -4 -4 -3 -3 -1 1 3 10 10 5
0 2 11 15 14 11 10 10 10 10 5 3 5 9 8 10 10 9 10 8 6 1 -2 -2 -1 -2 -4 -1 2 -1 -4 -5 -7 -8 -7 -4 -2 -1 -0 8 8 10 8
0 4 10 14 11 11 10 10 10 7 4 3 9 11 10 10 9 7 9 9 8 2 0 -0 -1 -1 -0 -1 -1 -1 -0 0 -0 0 -0 -2 -4 -6 -4 -1 10 10 11
-1 3 7 15 12 9 9 9 9 5 2 3 6 10 10 10 10 10 9 10 9 4 2 2 2 1 1 1 2 3 8 9 4 4 5 6 6 5 2 -2 1 5 10
-0 3 7 14 10 10 9 8 8 4 1 1 5 10 10 10 11 11 10 10 9 5 2 2 3 2 2 2 3 3 4 5 5 7 8 8 8 8 7 6 4 3 10
2 2 5 9 9 12 10 8 7 4 -0 0 4 9 10 10 11 10 10 10 10 5 3 3 5 7 8 8 9 9 9 9 9 9 9 9 9 8 8 9 9 8 7
6 4 5 7 11 13 10 9 7 4 2 1 4 6 9 10 10 10 9 9 7 3 3 7 8 9 9 10 10 10 10 10 10 9 9 8 9 9 9 10 10 10 10
7 8 9 9 11 13 10 10 9 6 6 3 2 2 3 6 8 8 8 7 3 3 7 8 9 10 10 10 10 10 10 9 9 8 7 7 7 9 9 10 10 10 11
10 10 11 11 12 11 10 10 9 8 10 8 6 2 -0 0 4 7 6 2 3 7 9 9 10 10 10 9 9 8 8 7 6 4 4 4 5 6 7 8 8 9 10
8 10 11 12 12 12 10 10 9 9 9 8 7 5 -1 -2 3 2 1 3 7 9 9 10 10 9 8 9 8 8 8 5 1 -1 -2 -1 -0 2 4 5 3 3 7
6 9 10 11 12 12 10 10 10 9 9 8 8 6 1 1 3 3 5 7 9 10 11 10 9 9 9 8 6 2 -1 -3 -3 -3 -3 -3 -3 -2 2 5 7 6 5
3 5 7 9 11 12 12 9 10 9 10 10 9 4 6 5 5 7 9 11 10 10 11 10 9 9 6 -1 -3 -3 -3 -3 -4 -6 -8 -8 -7 -3 4 7 7 5 6
3 3 3 5 8 12 12 10 10 9 11 12 9 8 9 9 9 10 11 11 10 9 9 9 8 2 -4 -4 -5 -6 -9 -10 -11 -11 -10 -8 -4 -2 0 3 3 4 5
2 2 2 3 4 9 12 11 11 11 12 11 10 10 10 11 11 11 10 10 9 9 9 4 -4 -5 -6 -8 -10 -12 -13 -13 -12 -10 -8 -5 -2 -1 -1 -1 -1 -1 -0
1 1 1 2 2 4 11 12 13 13 13 12 11 11 11 11 10 10 10 9 9 7 -4 -5 -6 -7 -8 -11 -12 -13 -13 -13 -12 -8 -6 -5 -4 -3 -3 -3 -3 -3 -3
1 1 2 2 2 3 11 13 13 13 13 12 11 11 10 10 10 9 9 9 4 -5 -4 -5 -5 -8 -12 -13 -14 -14 -15 -15 -12 -9 -9 -10 -10 -10 -12 -16 -15 -14 -16
1 1 1 2 2 2 11 12 13 13 12 12 11 11 10 10 10 9 9 2 -4 -4 -4 -6 -11 -13 -13 -13 -13 -14 -15 -15 -12 -8 -8 -10 -14 -18 -18 -21 -23 -20 -22
2 2 2 2 2 3 11 13 13 12 12 12 11 11 10 10 9 8 -1 -4 -3 -3 -6 -10 -13 -13 -13 -13 -14 -15 -17 -18 -14 -8 -5 -12 -15 -11 -19 -20 -24 -26 -27
2 2 2 2 3 5 10 13 13 12 13 12 11 11 11 10 9 -4 -3 -1 -1 -3 -5 -7 -11 -12 -14 -15 -16 -18 -19 -20 -18 -15 -14 -15 -21 -15 -20 -23 -24 -24 -24
3 2 2 4 5 7 10 12 12 12 12 12 11 11 10 8 -2 -3 -1 0 -1 -1 -3 -4 -7 -10 -13 -15 -17 -19 -19 -20 -16 -20 -21 -22 -22 -22 -21 -21 -22 -23 -24
3 2 4 5 7 10 10 12 12 12 12 11 11 10 7 1 -3 -2 0 0 -0 -1 -1 -2 -5 -9 -13 -17 -19 -20 -18 -16 -21 -21 -21 -20 -19 -20 -20 -20 -21 -21 -22
2 3 5 8 9 9 11 12 11 11 11 10 9 8 6 -3 -2 0 0 -0 -1 -1 -1 -2 -5 -8 -14 -18 -20 -21 -21 -21 -18 -15 -18 -18 -19 -19 -19 -19 -19 -20 -21
3 3 5 8 9 12 13 12 12 10 10 9 8 8 -3 -3 -1 -0 -0 -1 -1 -1 -1 -3 -5 -10 -16 -20 -21 -20 -21 -21 -20 -18 -16 -17 -17 -17 -18 -18 -19 -20 -21
3 4 5 6 10 13 11 11 12 10 9 8 7 -1 -3 -2 -1 -0 -1 -2 -1 -1 -2 -3 -7 -12 -18 -20 -20 -20 -20 -19 -19 -18 -13 -13 -13 -14 -17 -18 -19 -20 -21
Wind_Speed
10 13 16 12 11 9 6 6 5 3 1 2 5 7 9 8 7 6 6 5 6 7 9 8 4 5 7 8 6 4 6 9 9 10 10 7 5 6 8 8 12 13 11
10 13 16 13 11 9 6 4 3 1 2 2 4 7 10 9 9 7 4 3 5 4 4 2 7 8 8 7 5 7 9 9 8 9 8 6 2 2 1 4 3 9 7
11 13 15 14 13 9 6 4 2 1 2 2 9 7 6 6 5 3 2 2 3 2 4 3 3 5 7 9 8 8 8 7 6 5 4 3 2 1 0 4 2 7 4
11 13 14 16 13 9 5 4 2 1 2 3 7 9 8 8 5 6 8 3 7 6 6 6 6 4 2 3 4 4 3 2 3 4 3 3 3 3 3 2 4 7 5
13 13 14 14 12 9 6 4 2 1 1 3 9 10 9 8 7 10 7 7 7 8 8 8 8 7 6 5 3 3 3 3 4 4 4 4 4 4 5 4 3 6 11
14 14 15 14 11 8 6 4 2 0 1 4 7 11 8 6 5 3 3 3 4 6 7 7 7 6 6 5 3 2 2 2 1 2 2 3 4 4 5 6 6 9 11
14 14 14 14 11 9 7 5 3 1 2 4 9 13 10 6 4 7 4 3 4 3 4 5 5 4 3 3 2 2 3 4 4 4 4 4 5 6 6 7 8 9 9
11 13 13 13 12 11 7 6 3 2 3 6 10 11 11 9 6 7 6 3 3 3 3 4 5 5 5 5 4 3 3 4 6 6 6 6 7 8 8 8 9 10 11
12 13 12 13 12 11 8 6 4 4 4 6 8 9 10 10 7 6 5 3 2 2 2 3 4 4 4 5 6 7 8 9 10 11 11 11 12 12 10 10 12 13 15
12 13 12 11 12 12 10 8 5 4 6 7 6 6 7 9 9 8 6 4 4 2 0 1 3 4 5 7 9 11 12 12 11 12 10 10 12 13 12 11 14 15 16
14 13 14 13 12 12 11 10 7 5 5 6 4 4 5 7 8 8 7 6 4 2 2 2 4 6 8 10 11 12 12 12 12 12 12 12 13 12 12 14 15 16 16
14 15 15 15 13 13 13 12 10 8 7 6 5 4 4 7 9 8 7 6 4 3 4 5 6 9 10 11 12 13 14 15 15 15 15 15 14 15 15 15 14 15 17
9 13 15 16 16 14 14 14 12 10 9 8 7 6 6 6 7 7 6 5 5 4 4 6 8 10 12 15 16 15 16 17 19 20 20 18 16 15 14 13 10 11 14
9 10 11 14 17 15 14 16 14 12 11 9 9 8 7 7 6 6 6 5 3 3 6 9 10 13 15 15 17 18 20 21 21 21 20 18 15 12 6 6 9 12 11
14 11 13 13 15 17 17 17 15 13 12 10 10 10 9 7 6 7 6 3 4 5 8 11 12 14 16 18 20 20 21 20 19 16 13 12 9 10 9 10 11 8 7
17 16 17 16 17 18 19 18 16 14 13 11 11 11 9 8 6 6 6 5 6 8 11 11 13 17 19 19 19 18 16 15 13 10 7 6 7 7 8 10 9 11 12
18 19 21 22 20 21 21 19 18 17 14 11 10 11 10 8 8 8 6 6 7 8 10 14 17 18 18 16 15 14 12 12 10 7 5 5 6 8 9 11 12 14 15
21 21 23 25 24 23 24 21 19 17 16 13 13 11 12 10 8 8 7 7 6 8 12 15 17 17 16 13 11 11 10 10 8 6 4 5 7 9 10 12 14 16 17
25 26 25 25 25 24 26 24 20 19 17 17 14 14 12 9 9 9 8 5 6 9 12 15 15 15 13 11 10 11 11 8 8 9 8 8 9 10 13 15 17 19 21
24 24 24 23 22 24 27 25 23 21 20 20 17 16 14 10 7 9 7 5 6 8 11 12 13 14 15 16 14 13 5 5 7 10 11 15 16 17 17 20 22 24 25
21 22 26 25 25 27 30 29 26 24 23 22 20 19 15 12 10 10 6 3 5 9 11 13 13 15 17 19 17 12 7 1 8 9 9 12 18 18 22 24 26 28 28
21 24 26 27 26 29 30 31 25 24 24 24 24 21 17 13 13 9 5 4 7 10 12 14 15 17 19 20 20 13 7 6 2 13 15 16 19 17 25 25 27 26 26
26 25 26 26 28 30 31 31 24 24 25 26 25 21 19 17 14 9 5 5 7 10 13 16 17 17 17 19 19 14 7 4 24 1 21 10 26 24 31 31 29 31 28
26 25 26 26 28 29 31 27 25 25 26 26 24 22 21 19 14 9 6 4 7 11 14 16 18 19 18 17 17 16 13 13 8 13 13 28 29 36 34 31 36 28 32
27 28 28 26 27 29 27 25 28 23 26 24 26 25 24 19 14 9 5 5 8 11 14 16 18 18 18 18 18 17 16 16 16 17 25 32 38 36 35 42 31 37 31
28 29 28 27 28 31 29 26 27 22 26 28 28 28 24 18 13 8 6 7 9 12 14 16 17 18 18 18 18 18 18 17 19 20 20 29 30 28 44 32 38 31 32
Wind_Direction
167 162 159 161 163 151 147 138 131 109 100 289 242 222 205 210 221 237 230 243 267 287 301 277 224 139 108 136 158 214 263 272 282 292 296 320 296 271 253 237 243 262 273
169 163 158 163 167 168 163 154 140 71 4 7 130 155 163 183 205 217 230 261 302 311 326 286 210 188 171 160 188 224 244 267 281 291 311 345 11 30 4 179 260 266 264
163 170 158 160 171 181 185 168 152 11 5 69 137 140 134 135 189 192 203 50 21 4 4 30 172 201 202 210 229 241 253 265 281 286 319 344 327 346 190 200 245 271 242
165 172 157 164 173 186 190 181 177 331 3 87 136 160 106 109 86 101 105 52 41 39 51 59 73 70 130 203 238 264 281 302 348 5 358 349 320 311 293 269 230 281 291
164 175 170 171 181 186 191 192 203 322 71 135 130 130 116 105 104 104 75 43 30 42 56 64 73 77 81 90 91 91 69 47 47 39 23 10 335 309 299 287 218 254 260
169 175 180 177 182 186 180 184 200 215 134 155 145 133 129 130 128 118 10 11 13 30 46 53 60 68 72 73 75 96 58 339 55 20 349 331 318 304 292 277 257 240 260
179 176 182 181 189 188 180 187 189 171 161 157 150 141 133 138 176 165 213 326 352 19 35 45 45 51 51 44 25 9 346 314 314 312 310 308 301 298 286 279 274 277 258
189 183 183 183 187 187 191 187 187 171 147 146 156 155 154 162 163 172 190 251 314 343 13 18 18 27 29 26 23 6 343 319 314 309 305 295 287 281 284 288 292 296 290
189 194 188 187 189 193 196 198 193 177 153 140 150 166 175 178 181 165 186 225 262 298 343 21 40 33 22 350 332 320 311 305 305 303 299 292 285 281 284 297 295 293 294
195 198 199 200 196 201 207 210 209 192 170 149 151 167 187 197 197 197 201 216 223 239 263 47 32 332 321 316 318 311 305 306 307 307 306 298 292 285 284 275 275 272 276
206 204 208 212 208 212 213 213 214 198 193 166 177 182 193 199 197 197 208 204 218 222 232 281 309 311 311 312 315 315 313 312 314 311 311 304 300 296 289 281 276 275 274
227 221 215 220 221 220 222 215 218 211 208 212 215 216 211 195 194 194 202 211 215 231 262 282 307 313 315 313 313 308 308 310 310 309 307 305 301 295 293 293 292 289 279
248 242 233 231 229 229 230 223 223 218 217 223 225 225 205 190 196 206 214 213 226 257 274 295 306 309 311 315 314 313 313 310 309 306 304 301 297 294 298 302 298 282 281
243 255 250 243 238 235 232 228 228 225 223 227 225 212 203 201 202 201 212 211 222 272 292 295 299 306 312 315 309 308 305 303 302 302 300 299 300 299 270 252 263 274 284
247 256 260 256 246 235 235 227 223 222 221 229 214 205 208 210 216 218 201 210 244 276 293 301 305 306 308 307 304 306 306 305 305 303 299 300 296 276 263 263 276 283 253
265 265 266 261 256 240 234 228 221 217 215 220 211 210 212 208 212 211 229 232 270 293 297 303 306 308 308 310 311 311 311 311 311 307 299 292 281 271 273 279 282 277 280
262 270 266 262 260 241 231 223 216 209 214 215 210 205 204 213 230 222 219 255 281 291 305 310 312 312 311 314 313 314 313 310 302 293 283 276 277 279 283 284 285 286 285
260 268 263 257 253 234 223 218 215 211 216 212 209 201 210 217 217 222 235 253 274 301 312 313 312 310 314 321 323 318 314 304 276 264 267 276 284 287 294 298 296 293 293
256 263 258 254 241 222 213 215 211 213 217 205 207 207 212 216 225 220 240 245 287 314 317 319 321 323 334 345 345 326 317 293 259 254 261 279 294 305 308 306 307 299 298
256 255 249 243 225 212 209 204 211 206 210 201 202 204 209 206 223 213 219 254 303 327 334 337 340 343 348 352 356 345 345 300 267 258 269 287 287 292 312 309 310 310 308
262 257 254 235 220 210 204 200 206 204 202 194 197 198 199 198 211 201 221 270 326 343 351 358 354 349 347 352 356 15 353 357 288 276 287 298 308 295 305 316 311 312 311
264 260 244 228 217 207 206 202 199 205 198 199 194 188 192 194 195 201 221 295 332 352 358 356 354 353 354 356 4 5 357 340 193 296 314 299 297 307 307 311 315 317 315
258 253 228 219 213 205 205 193 191 197 191 189 186 185 181 194 194 201 232 294 338 351 350 352 353 354 357 355 359 11 352 321 314 254 308 304 313 316 321 323 325 324 322
247 233 221 214 210 210 203 194 205 200 200 198 198 187 194 187 196 206 239 298 331 340 347 349 350 348 350 352 351 348 342 325 317 313 312 312 318 321 325 327 327 326 322
235 224 215 212 211 207 203 202 203 213 201 196 189 194 189 189 196 213 245 292 320 335 341 345 344 343 344 344 342 339 335 328 322 311 309 314 316 323 323 326 325 326 323
224 214 210 211 208 203 205 204 205 207 194 190 192 189 188 192 201 220 252 286 314 329 337 338 337 339 338 337 335 333 332 330 322 316 304 312 312 322 319 322 323 322 322
Height
1511 1512 1514 1517 1518 1519 1521 1522 1523 1524 1524 1525 1525 1526 1528 1530 1530 1531 1532 1532 1533 1533 1532 1530 1532 1532 1531 1532 1533 1534 1534 1534 1534 1533 1533 1531 1530 1529 1529 1530 1532 1532 1532
1511 1512 1514 1516 1518 1520 1521 1522 1523 1524 1524 1524 1524 1526 1528 1529 1530 1531 1532 1533 1532 1532 1531 1530 1530 1531 1532 1533 1533 1533 1532 1532 1532 1532 1532 1530 1530 1529 1529 1528 1531 1531 1531
1511 1513 1514 1516 1517 1520 1522 1522 1523 1524 1524 1525 1526 1527 1527 1528 1531 1531 1532 1533 1533 1532 1531 1530 1529 1531 1531 1532 1532 1532 1531 1531 1531 1530 1529 1530 1530 1529 1529 1529 1529 1530 1530
1511 1513 1514 1516 1518 1519 1522 1523 1524 1524 1524 1524 1526 1528 1529 1530 1531 1532 1533 1534 1533 1532 1532 1531 1530 1530 1530 1531 1531 1531 1531 1530 1530 1529 1528 1529 1530 1529 1529 1528 1528 1528 1528
1511 1514 1515 1516 1518 1520 1521 1523 1524 1524 1524 1525 1526 1529 1531 1532 1532 1533 1533 1534 1535 1533 1533 1532 1531 1531 1531 1531 1531 1531 1531 1530 1529 1528 1528 1527 1528 1528 1528 1527 1527 1528 1528
1512 1514 1516 1517 1518 1520 1521 1523 1524 1525 1525 1525 1527 1529 1531 1532 1533 1534 1534 1534 1535 1534 1534 1533 1532 1532 1531 1531 1531 1530 1530 1529 1529 1527 1527 1526 1526 1527 1527 1526 1526 1525 1525
1512 1514 1516 1518 1519 1521 1521 1523 1524 1525 1525 1525 1527 1529 1531 1532 1532 1533 1534 1535 1535 1535 1534 1533 1533 1532 1532 1531 1531 1530 1530 1530 1528 1527 1526 1525 1525 1525 1525 1524 1523 1523 1523
1512 1514 1515 1518 1519 1521 1522 1523 1524 1525 1526 1527 1528 1529 1531 1532 1532 1533 1534 1535 1535 1535 1534 1533 1533 1532 1532 1532 1531 1531 1529 1529 1528 1527 1525 1524 1523 1523 1523 1523 1522 1521 1521
1512 1514 1515 1517 1519 1521 1523 1523 1524 1525 1526 1527 1529 1530 1531 1532 1532 1533 1534 1535 1535 1534 1534 1534 1534 1533 1531 1532 1531 1530 1529 1527 1527 1526 1524 1522 1521 1521 1521 1521 1521 1520 1519
1511 1513 1514 1516 1518 1520 1522 1523 1524 1525 1527 1528 1529 1530 1531 1531 1532 1533 1534 1534 1534 1534 1534 1533 1533 1532 1531 1531 1530 1528 1528 1526 1524 1524 1522 1520 1519 1519 1519 1518 1518 1517 1516
1509 1511 1513 1515 1517 1518 1520 1522 1523 1524 1526 1528 1528 1529 1530 1531 1532 1532 1533 1533 1533 1533 1533 1533 1532 1531 1530 1530 1528 1527 1526 1525 1523 1522 1521 1519 1518 1517 1517 1516 1515 1514 1513
1507 1510 1512 1514 1515 1517 1518 1520 1522 1523 1525 1526 1528 1529 1529 1530 1532 1532 1532 1532 1533 1532 1532 1532 1530 1530 1529 1528 1526 1525 1523 1522 1520 1520 1519 1517 1516 1515 1515 1514 1513 1512 1510
1506 1508 1510 1511 1513 1515 1516 1518 1520 1522 1523 1525 1527 1528 1529 1529 1530 1532 1531 1531 1531 1531 1531 1530 1529 1529 1527 1524 1524 1522 1520 1519 1518 1517 1515 1513 1512 1512 1512 1511 1510 1508 1507
1503 1505 1507 1509 1510 1512 1514 1515 1517 1520 1521 1523 1525 1527 1528 1528 1530 1530 1531 1530 1530 1530 1530 1529 1527 1527 1525 1522 1522 1519 1517 1515 1514 1513 1511 1509 1509 1509 1508 1507 1506 1506 1506
1500 1502 1504 1506 1507 1509 1511 1513 1514 1517 1519 1521 1523 1525 1526 1528 1528 1529 1529 1529 1529 1528 1528 1528 1525 1524 1522 1520 1518 1515 1512 1511 1510 1509 1507 1506 1506 1505 1505 1504 1503 1504 1502
1497 1499 1501 1502 1504 1505 1507 1510 1512 1514 1517 1519 1521 1523 1524 1526 1527 1527 1527 1528 1528 1527 1526 1525 1523 1522 1520 1516 1514 1510 1508 1507 1506 1506 1505 1504 1505 1504 1503 1502 1502 1500 1499
1493 1494 1496 1497 1499 1501 1503 1507 1509 1512 1514 1517 1519 1521 1522 1524 1525 1526 1526 1526 1526 1525 1524 1523 1521 1518 1516 1514 1511 1507 1505 1504 1504 1503 1503 1503 1503 1502 1501 1500 1499 1497 1496
1488 1489 1490 1491 1492 1495 1499 1502 1505 1508 1512 1514 1517 1519 1520 1522 1523 1524 1525 1524 1524 1523 1522 1521 1518 1516 1514 1511 1508 1504 1502 1501 1501 1501 1501 1501 1501 1499 1498 1497 1495 1494 1492
1482 1483 1484 1484 1486 1488 1493 1498 1503 1506 1509 1511 1514 1516 1518 1520 1522 1522 1524 1522 1522 1521 1520 1519 1515 1513 1511 1508 1506 1502 1499 1498 1498 1499 1499 1499 1498 1497 1496 1494 1492 1489 1487
1475 1476 1477 1478 1480 1483 1488 1494 1499 1503 1506 1508 1510 1513 1516 1517 1519 1520 1522 1521 1521 1520 1518 1516 1514 1511 1507 1505 1502 1500 1496 1497 1496 1497 1497 1496 1495 1493 1492 1490 1488 1485 1483
1469 1471 1472 1473 1475 1478 1481 1487 1494 1498 1502 1505 1508 1510 1513 1515 1516 1518 1519 1520 1520 1518 1517 1514 1512 1509 1505 1501 1500 1499 1495 1495 1494 1495 1494 1493 1491 1490 1489 1486 1484 1481 1477
1463 1464 1465 1467 1470 1473 1477 1481 1489 1495 1499 1502 1504 1507 1510 1512 1514 1516 1517 1517 1517 1515 1514 1512 1510 1507 1502 1500 1497 1494 1494 1494 1493 1492 1490 1490 1488 1487 1486 1482 1480 1477 1473
1456 1457 1459 1462 1466 1470 1473 1477 1484 1490 1494 1498 1501 1504 1507 1510 1512 1513 1514 1515 1515 1513 1512 1510 1507 1506 1502 1499 1496 1497 1495 1494 1490 1488 1488 1484 1484 1481 1478 1475 1473 1470 1466
1448 1451 1455 1458 1462 1466 1471 1476 1480 1485 1489 1494 1499 1502 1505 1508 1510 1511 1512 1513 1512 1511 1509 1507 1504 1502 1500 1498 1496 1495 1494 1493 1490 1482 1479 1477 1475 1472 1470 1468 1466 1463 1459
1441 1446 1451 1455 1459 1463 1469 1473 1477 1482 1486 1491 1495 1499 1502 1505 1507 1509 1509 1510 1510 1509 1507 1504 1502 1500 1497 1496 1494 1493 1492 1490 1488 1484 1474 1470 1467 1464 1461 1459 1457 1454 1451
1435 1441 1446 1451 1455 1460 1466 1470 1474 1479 1484 1487 1492 1496 1499 1502 1504 1506 1507 1508 1507 1506 1504 1502 1500 1497 1495 1493 1492 1490 1488 1487 1484 1480 1474 1466 1461 1456 1453 1452 1452 1448 1444